TimeCST,TemperatureF,Dew PointF,Humidity,Sea Level PressureIn,VisibilityMPH,Wind Direction,Wind SpeedMPH,Gust SpeedMPH,PrecipitationIn,Events,Conditions,WindDirDegrees,DateUTC
12:52 AM,28.0,26.1,92,30.16,-9999.0,NNW,11.5,-,N/A,,Unknown,340,2013-02-27 06:52:00
1:52 AM,26.1,24.1,92,30.18,-9999.0,North,10.4,-,N/A,,Unknown,350,2013-02-27 07:52:00
2:52 AM,26.1,23.0,88,30.19,-9999.0,North,9.2,-,N/A,,Unknown,350,2013-02-27 08:52:00
3:52 AM,25.0,21.0,85,30.19,-9999.0,NNW,12.7,-,N/A,,Unknown,330,2013-02-27 09:52:00
4:52 AM,19.0,16.0,88,30.22,-9999.0,North,12.7,-,N/A,,Unknown,350,2013-02-27 10:52:00
5:52 AM,18.0,17.1,96,30.23,-9999.0,NNW,9.2,-,N/A,,Unknown,340,2013-02-27 11:52:00
6:52 AM,21.0,18.0,88,30.25,-9999.0,North,4.6,-,N/A,,Unknown,10,2013-02-27 12:52:00
7:52 AM,21.0,19.0,92,30.27,-9999.0,North,11.5,-,N/A,,Unknown,350,2013-02-27 13:52:00
8:52 AM,21.9,19.0,89,30.28,-9999.0,North,8.1,-,N/A,,Unknown,360,2013-02-27 14:52:00
9:52 AM,25.0,21.0,85,30.30,-9999.0,NNE,10.4,16.1,N/A,,Unknown,20,2013-02-27 15:52:00
10:52 AM,25.0,21.0,85,30.30,-9999.0,North,8.1,-,N/A,,Unknown,360,2013-02-27 16:52:00
11:52 AM,26.1,21.0,81,30.32,-9999.0,NNE,10.4,-,N/A,,Unknown,20,2013-02-27 17:52:00
12:52 PM,27.0,21.0,78,30.32,-9999.0,North,8.1,-,N/A,,Unknown,360,2013-02-27 18:52:00
1:52 PM,27.0,21.9,81,30.32,-9999.0,North,11.5,-,N/A,,Unknown,350,2013-02-27 19:52:00
2:52 PM,27.0,21.9,81,30.32,-9999.0,North,15.0,-,N/A,,Unknown,350,2013-02-27 20:52:00
3:52 PM,26.1,21.9,84,30.33,-9999.0,North,11.5,-,N/A,,Unknown,360,2013-02-27 21:52:00
4:52 PM,25.0,21.0,85,30.35,-9999.0,North,6.9,-,N/A,,Unknown,360,2013-02-27 22:52:00
5:52 PM,24.1,19.9,84,30.36,-9999.0,North,11.5,-,N/A,,Unknown,360,2013-02-27 23:52:00
6:52 PM,23.0,19.0,85,30.36,-9999.0,North,12.7,-,N/A,,Unknown,350,2013-02-28 00:52:00
7:52 PM,21.9,19.0,89,30.38,-9999.0,North,9.2,-,N/A,,Unknown,360,2013-02-28 01:52:00
8:52 PM,21.0,18.0,88,30.37,-9999.0,Variable,4.6,-,N/A,,Unknown,0,2013-02-28 02:52:00
9:52 PM,21.0,17.1,85,30.36,-9999.0,NNE,8.1,-,N/A,,Unknown,30,2013-02-28 03:52:00
10:52 PM,19.9,16.0,85,30.36,-9999.0,Calm,Calm,-,N/A,,Unknown,0,2013-02-28 04:52:00
11:52 PM,19.0,16.0,88,30.37,-9999.0,NNW,3.5,-,N/A,,Unknown,340,2013-02-28 05:52:00